User: anonymous   Login
Location: Miami, Florida
(25.6830°N, 80.1700°W)
Time: 18:29:57
(UTC-04:00)
Language:

Vanguard 2 Rocket - Orbit

View from above orbital plane
View from above orbital plane
View from above satellite
View from above satellite

Ground track
Ground track

The orbit data is extracted from the following two-line orbital elements,

1 00012U 59001B   17327.16225006  .00000117  00000-0  54503-4 0  9990
2 00012  32.9041  29.9758 1665044 188.5997 168.2249 11.44145317415167
Epoch (UTC): 23 November 2017 03:53:38
Eccentricity: 0.1665044
inclination: 32.9041°
perigee height: 556 km
apogee height: 3326 km
right ascension of ascending node: 29.9758°
argument of perigee: 188.5997°
revolutions per day: 11.44145317
mean anomaly at epoch: 168.2249°
orbit number at epoch: 41516

The dashed part of the orbit path shows where the satellite is in the earth's shadow,  

DLR